Location: Be Fefe
(6.6500°N, 10.7333°W)
Time: 16:45:34
(UTC+00:00)

Daily predictions for brighter satellites

Satellite Brightness Start Highest point End
(mag) Time Altitude Azimuth Time Altitude Azimuth Time Altitude Azimuth
H-2A R/B 1.7 19:14:54 10° NW 19:16:56 39° NE 19:21:50 10° ESE
CSL-04 DEB 4.3 19:19:50 10° NNE 19:23:48 73° ESE 19:27:54 10° S
PSLV R/B 3.8 19:21:13 10° NNE 19:25:14 76° ESE 19:29:15 10° S
Cosmos 1908 Rocket 4.1 19:26:54 10° NNE 19:30:55 38° E 19:34:56 10° SSE
Cosmos 1066 Rocket 4.1 19:27:03 10° S 19:32:32 69° E 19:37:53 10° NNE
Atlas Centaur 2 2.9 19:29:46 10° NNW 19:32:45 22° NNE 19:36:04 10° E
Cosmos 1689 Rocket 2.5 19:30:10 10° NNE 19:32:47 36° E 19:35:25 10° S
H-2A R/B 2.0 19:28:48 10° SSE 19:33:56 81° ENE 19:39:13 10° N
Cosmos 1378 3.9 19:33:47 10° SSW 19:37:26 54° W 19:41:04 10° N
Okean O Rocket 3.2 19:33:43 10° SSW 19:37:44 36° WSW 19:41:43 10° NW
SL-16 R/B 3.0 19:33:03 10° SSE 19:37:52 29° ESE 19:42:40 10° NE
SAR-Lupe-4 4.3 19:36:10 10° NE 19:39:20 31° E 19:42:31 10° SSE
Cosmos 2322 Rocket 3.3 19:35:50 10° SSE 19:40:02 22° ESE 19:44:16 10° NE
Genesis I 3.4 19:37:43 10° SSW 19:41:25 70° WNW 19:45:10 10° NNE
GPS 2-12 Rocket1 3.1 19:37:17 10° WNW 19:41:40 68° NNE 19:45:19 15° E
SAR-Lupe-1 4.3 19:41:30 10° NNE 19:44:54 44° E 19:48:19 10° S
ERS-2 3.1 19:44:33 10° NE 19:47:40 26° ESE 19:50:26 12° SSE
CZ-4 R/B 1.2 19:43:54 10° SSE 19:47:44 73° ENE 19:51:32 10° N
Cosmos 2218 Rocket 4.0 19:42:34 10° N 19:48:54 72° E 19:55:08 10° S
Cosmos 1624 Rocket 4.0 19:44:00 10° S 19:49:19 78° ESE 19:54:38 10° NNE
GPS 2-18 Rocket1 3.1 19:51:19 10° WSW 19:55:12 86° NNW 19:58:33 14° ENE
ARGOS 3.1 19:51:22 10° SSE 19:56:44 83° ENE 20:02:06 10° N
Cosmos 1980 Rocket 4.3 19:52:47 10° SW 19:57:37 29° WNW 20:02:27 10° NNW
ARIANE 44L R/B 2.1 19:57:39 10° W 19:59:47 53° S 20:01:52 24° ESE
TRAILBLAZER 4.4 19:55:35 10° SSW 20:00:01 78° ESE 20:04:30 10° NNE
Centaur D-1AR AC-36 4.0 20:00:39 10° NNW 20:01:53 11° NNE 20:03:12 10° NE
Cosmos 1782 Rocket 3.5 20:03:43 10° N 20:07:58 59° E 20:10:35 22° SSE
CSL-04 Rocket 4.0 20:05:15 22° SE 20:08:29 45° ENE 20:13:41 10° N
FALCON 9 DEB 3.3 20:05:57 10° SSW 20:08:21 39° SSE 20:08:21 39° SSE
Cosmos 1452 Rocket 4.1 20:12:07 27° SE 20:13:47 33° ESE 20:18:29 10° NE
SEDSat Delta rocket 3.3 20:10:36 10° NW 20:15:18 71° NNE 20:17:33 34° ESE
Timation 2 Rocket 4.0 20:14:57 10° N 20:21:14 64° ENE 20:24:40 29° SE
Spelda 4.1 20:17:42 10° W 20:22:17 82° S 20:38:05 18° E
Cosmos 2084 3.6 20:19:38 10° NNW 20:24:10 63° ENE 20:25:12 48° ESE
USA 234 3.3 20:20:56 30° ESE 20:24:15 62° NE 20:30:42 10° NNW
ATLAS 3B R/B 4.3 20:29:24 14° ENE 20:29:24 14° ENE 20:30:19 10° NE
Cosmos 2251 Rocket 3.6 20:23:04 10° N 20:28:16 59° ENE 20:29:41 44° SE
ATLAS 5 CENTAUR R/B 1.7 20:26:02 10° WSW 20:27:10 22° WSW 20:27:10 22° WSW
ARIANE 42L R/B 3.6 20:08:15 10° W 20:28:22 67° S 20:30:05 41° ESE
YAOGAN 1 4.2 20:25:04 10° SSW 20:28:55 32° W 20:32:46 10° NW
FALCON 9 DEB 4.3 20:26:42 10° SW 20:29:34 38° NW 20:32:28 10° NNE
Cosmos 1805 4.0 20:29:05 10° N 20:31:49 38° NE 20:31:49 38° NE
Sich 1 Rocket 3.9 20:28:36 10° N 20:32:21 46° ENE 20:32:21 46° ENE
Hubble Space Telescope 2.8 20:30:20 10° NNW 20:33:01 17° NNE 20:33:35 16° NE
FALCON 9 DEB 3.9 20:30:16 10° SW 20:32:36 42° WSW 20:32:36 42° WSW
Okean 2 4.3 20:37:44 35° NE 20:37:44 35° NE 20:40:16 10° NNE
Lacrosse 5 rocket 2.7 20:33:04 10° SW 20:36:50 37° WNW 20:40:23 10° N
GPS 2-17 Rocket1 3.6 20:32:53 10° SW 20:36:07 39° SSW 20:36:07 39° SSW
Ariane H10-3 4.3 20:32:01 10° W 20:39:45 24° SSW 20:40:25 23° SSW
CSL-04 Debris 4.4 20:38:11 26° S 20:41:12 68° WSW 20:46:32 10° NNW
OAO 3 Copernicus 4.4 20:39:08 10° WNW 20:44:06 61° SW 20:44:37 57° S
Cosmos 1378 Rocket 3.4 20:45:11 85° WNW 20:45:11 85° WNW 20:49:27 10° N
Cosmos 2219 4.0 20:44:50 10° NNW 20:50:19 49° WSW 20:53:03 28° SSW
Cosmos 2297 Rocket 3.5 20:47:40 10° NW 20:52:47 36° WSW 20:56:02 20° SSW
Meteor 1-15 Rocket 4.2 20:47:55 10° N 20:53:49 86° E 20:54:45 65° SSE
Meteor 2-20 4.4 20:54:40 62° E 20:54:40 62° E 21:00:29 10° NNE
Cosmos 2227 Rocket 2.9 20:51:13 10° NNW 20:56:37 48° WSW 20:58:40 33° SSW
BLOCK DM-SL R/B 4.1 20:51:37 10° WSW 21:00:41 44° S 21:00:44 44° S
Ariane Rocket 4.4 21:12:55 29° NNE 21:12:55 29° NNE 21:15:27 10° N
USA 215 3.9 21:07:11 10° NE 21:16:20 40° SSW 21:20:16 10° SSW
Atlas Centaur 2 3.6 21:17:22 10° WNW 21:19:00 23° W 21:19:00 23° W
Cosmos 2360 Rocket 2.7 21:22:25 56° NW 21:22:25 56° NW 21:27:21 10° N
Cosmos 2322 Rocket 4.1 21:19:05 10° SW 21:23:47 27° WNW 21:28:29 10° NNW
ATLAS 3B R/B 4.3 22:16:20 27° NW 22:16:20 27° NW 22:20:45 10° N
